Wind_Speed
117 116 114 113 111 110 110 110 110 109 109 109 108 108 107 106 105 104 103 102 101 100 100 99 98 97 97 96 96 95 95 95 96 96 97 97 98 98 99 99 100 100 101 101 101 101 101 100 99 100 104 109 111 113 115 118 121 124 128 132 135 135 133 131 129 127 126 125 123 122 122 122 121 120 118 116 115 113 112 111 109 107 104 102 101
112 110 109 108 108 108 108 107 107 107 106 106 105 104 104 103 101 100 99 98 98 97 97 96 96 96 95 95 95 94 94 94 94 95 96 97 98 98 99 100 100 101 102 102 103 103 103 103 103 102 103 107 112 115 117 118 121 124 127 131 136 138 137 136 133 131 129 128 127 126 125 125 125 123 121 119 117 115 115 114 112 110 107 103 100
107 107 106 106 106 105 104 103 103 102 102 101 100 99 98 97 96 95 94 93 93 92 92 92 92 92 92 93 93 93 93 93 93 93 94 96 97 98 99 100 101 101 102 103 104 104 105 105 106 105 105 106 111 115 118 120 122 124 127 131 134 138 140 140 139 137 134 132 130 130 129 128 128 126 123 120 117 116 117 116 115 114 111 108 105
105 104 104 103 102 101 100 99 98 98 97 96 95 94 94 93 92 91 90 90 89 89 89 89 89 89 90 90 90 91 91 92 92 91 91 93 95 97 99 100 101 102 102 103 104 106 106 107 108 108 108 108 110 113 118 121 124 125 127 130 133 137 141 143 143 142 140 138 135 133 133 132 130 128 125 122 119 117 117 118 118 117 115 113 111
103 102 101 100 99 98 97 96 96 95 95 94 93 92 92 91 91 90 89 88 88 88 87 88 87 88 88 88 89 89 89 90 90 90 90 90 91 93 96 99 101 103 103 104 105 106 107 108 109 110 111 111 111 113 116 120 125 127 128 130 133 136 139 143 146 146 145 144 141 138 137 136 134 131 128 126 123 121 119 119 119 118 117 116 116
101 100 100 99 99 98 97 96 95 94 94 93 93 92 92 91 91 90 89 88 88 87 87 87 87 87 87 87 87 87 88 88 89 89 89 89 89 90 92 96 100 102 104 105 106 106 107 109 110 112 113 114 114 114 116 119 123 127 130 131 133 136 138 141 146 149 149 148 147 145 142 140 138 136 133 130 129 126 123 121 120 120 118 116 115
100 100 100 99 99 99 98 97 95 94 93 93 93 93 93 92 91 90 89 89 88 87 87 87 86 86 85 85 85 85 86 87 87 88 88 88 88 88 89 92 95 100 103 105 106 107 108 109 111 113 114 116 116 117 117 119 122 126 130 132 134 136 138 140 143 148 151 151 150 150 148 145 143 141 139 137 135 132 129 127 124 122 121 118 115
100 100 99 99 99 98 97 96 95 94 93 93 93 93 93 92 91 91 90 89 88 88 87 86 86 85 84 83 83 83 83 84 86 87 87 87 87 87 88 89 91 95 100 104 106 108 109 109 111 113 115 117 118 119 119 121 122 125 129 133 135 137 138 140 142 145 148 151 153 152 152 151 148 146 144 144 142 139 136 134 130 126 124 123 122
100 100 99 99 98 97 96 95 94 93 93 93 93 93 93 92 91 91 90 89 88 88 87 86 85 84 83 82 81 81 81 82 83 85 86 86 86 86 86 87 89 92 96 100 105 107 109 110 111 113 115 117 119 120 121 122 124 125 127 131 135 137 139 140 142 145 146 148 151 153 154 154 153 151 149 148 147 146 144 141 138 135 130 127 126
99 99 99 98 97 95 94 94 94 93 93 92 92 92 92 91 90 90 89 89 88 87 86 85 84 84 83 82 81 80 80 80 81 82 84 86 86 86 85 86 87 90 93 97 101 105 108 111 112 113 115 118 120 121 123 124 125 127 128 130 133 137 139 140 142 144 146 147 148 150 152 155 156 156 155 153 152 151 150 147 145 143 139 135 131
98 98 97 97 95 94 93 93 93 92 92 91 91 91 91 90 89 88 88 87 86 85 85 84 83 83 82 82 81 80 79 79 79 80 82 84 86 86 85 84 85 87 90 94 98 102 106 110 112 114 115 117 120 122 124 125 126 128 130 130 132 135 138 141 142 143 146 147 147 147 149 152 155 157 158 158 157 156 155 153 150 148 146 143 140
98 97 96 95 94 92 91 91 91 91 91 90 89 90 90 89 88 86 86 85 84 84 83 82 82 82 82 81 80 79 78 77 77 78 80 83 85 86 85 84 83 84 88 91 95 99 104 107 111 113 115 117 120 122 124 126 127 129 131 132 133 134 137 140 142 143 145 146 147 147 148 149 152 155 157 159 160 160 159 158 155 153 150 148 146
97 95 94 93 92 91 90 90 91 91 90 88 88 88 88 87 86 85 84 84 83 82 82 81 81 80 80 80 79 78 77 76 76 77 78 80 84 86 86 85 84 83 85 89 93 97 101 105 109 112 115 117 119 122 124 126 127 129 131 133 134 135 136 138 141 143 144 146 147 148 148 148 150 153 155 157 158 160 160 161 160 158 155 152 150
95 94 93 91 90 90 89 89 90 90 88 87 86 87 86 86 85 85 84 83 82 82 82 81 80 79 79 78 78 77 76 76 76 76 77 79 81 85 87 86 85 83 83 86 90 95 99 103 107 110 113 116 119 121 124 126 128 129 131 133 135 136 137 138 140 142 144 145 146 147 148 149 149 151 153 155 156 157 158 159 160 159 157 156 154
93 92 91 90 89 89 88 88 88 88 87 85 85 85 85 85 85 84 84 83 83 82 82 81 80 80 80 79 77 76 76 75 75 75 75 77 79 82 85 87 86 84 83 85 88 93 97 101 105 109 112 115 117 120 123 126 128 129 131 133 136 137 138 139 140 142 143 145 146 147 147 148 149 150 151 153 155 155 156 157 157 157 156 156 156
92 92 91 89 88 87 87 86 86 86 85 84 84 83 83 84 84 84 84 83 83 82 82 81 81 81 81 80 78 76 75 74 74 73 73 74 76 79 82 85 86 84 83 83 86 90 95 99 103 107 111 114 116 119 122 125 128 130 131 133 136 138 139 140 141 142 143 144 146 147 147 147 149 150 151 152 153 154 154 154 155 155 155 154 154
91 91 90 88 87 86 85 85 84 84 83 82 82 82 82 83 83 83 83 83 82 82 82 81 81 82 82 82 80 78 76 74 73 72 72 72 73 76 79 82 84 84 83 82 84 88 92 96 101 105 109 112 115 118 120 123 126 129 131 133 135 138 140 141 142 143 144 144 146 147 147 147 148 150 151 151 152 152 153 152 152 153 153 152 152
91 90 88 87 86 85 85 84 83 82 81 81 80 80 81 81 82 82 82 81 81 81 81 81 82 82 83 82 81 79 77 76 74 72 71 71 71 73 75 78 81 82 82 82 83 86 89 93 97 102 106 110 113 116 119 121 124 127 131 133 135 137 140 142 144 144 145 146 146 147 148 148 149 150 152 152 151 150 150 150 150 151 151 151 150
89 88 87 86 85 85 84 83 82 81 81 80 79 79 79 80 80 80 80 80 80 81 81 81 82 83 83 82 81 80 78 77 75 73 71 70 70 71 73 75 77 79 81 81 81 84 87 90 94 98 103 107 111 114 117 119 122 125 129 132 135 136 138 142 144 146 146 147 147 148 148 148 149 151 152 153 151 150 149 148 149 149 150 150 150
88 86 85 84 84 84 83 82 82 81 81 79 78 78 78 78 78 79 79 79 80 80 80 80 82 82 82 81 80 79 78 77 75 73 71 70 70 70 71 73 75 77 78 79 80 82 85 87 90 95 99 104 108 112 115 117 119 122 126 130 133 136 137 140 144 146 147 148 149 149 149 149 150 151 153 153 151 149 148 148 148 148 148 149 150
87 85 84 83 83 83 83 82 82 81 81 79 78 77 77 77 78 78 79 79 80 80 79 80 81 82 82 81 79 78 77 76 75 73 72 70 70 70 70 71 73 75 76 77 78 80 82 85 88 91 95 100 104 109 112 115 117 120 123 126 130 134 137 138 142 145 148 149 150 150 151 151 151 151 153 153 152 149 148 148 148 147 147 148 150
86 84 83 82 82 83 82 82 82 81 80 78 77 77 77 78 78 78 79 79 80 80 80 80 82 82 82 80 78 76 75 74 73 72 71 71 70 69 69 70 72 73 74 75 76 78 80 82 85 88 91 96 100 105 109 112 114 117 120 123 127 131 135 137 140 143 147 149 151 152 152 153 153 153 153 153 152 150 149 149 149 148 147 147 149
85 84 83 82 82 82 82 81 81 80 79 78 78 78 78 79 79 79 80 80 81 81 80 81 82 82 81 79 77 75 74 72 70 69 70 70 70 69 69 69 71 72 72 73 74 76 78 80 82 85 88 92 96 101 105 109 112 114 117 121 124 128 132 135 138 141 144 147 150 152 153 154 155 155 155 154 153 151 150 149 149 149 149 148 148
84 83 82 82 81 81 81 80 80 79 78 78 78 78 79 79 80 80 81 82 82 81 81 82 83 82 81 79 77 75 73 71 68 67 68 68 68 68 68 68 69 70 71 71 72 74 76 78 80 83 86 89 92 97 101 105 109 112 115 118 121 124 128 132 136 139 142 145 148 152 154 155 156 156 156 155 154 153 152 151 150 150 149 149 149
83 83 82 81 80 80 80 79 78 78 78 78 78 78 79 80 81 81 82 83 82 82 82 82 83 82 80 79 76 74 72 70 68 66 66 66 66 67 67 68 68 69 70 70 71 72 74 76 78 81 83 86 89 93 97 102 106 109 112 115 118 121 125 129 133 137 140 142 145 149 153 156 157 157 157 157 156 154 154 153 152 151 150 150 150
83 84 83 81 80 80 79 78 78 77 77 77 78 79 79 80 81 82 83 83 82 81 81 82 82 81 80 78 76 74 71 69 67 65 64 64 65 65 66 67 68 68 69 69 70 71 72 74 76 79 81 83 86 89 94 98 102 106 109 112 115 118 122 125 129 133 137 140 142 146 150 154 156 158 158 158 157 156 156 155 154 153 152 151 151
84 84 83 81 80 80 79 78 78 77 77 78 78 79 80 80 81 82 83 83 82 81 81 81 81 79 78 77 75 73 71 69 67 64 63 63 63 63 64 65 66 67 68 68 69 70 71 73 74 77 79 81 83 86 90 94 98 102 106 109 112 115 118 122 125 129 134 137 140 143 147 150 154 157 159 159 159 158 157 157 156 155 154 152 151
85 84 82 81 80 80 79 78 78 79 79 79 80 80 81 81 82 83 83 82 81 80 80 80 79 78 77 75 74 72 70 69 66 64 63 62 62 62 62 63 64 65 66 67 68 69 70 72 73 74 77 79 81 83 86 90 95 98 102 106 109 112 115 118 122 125 130 134 137 140 143 147 151 155 158 159 160 159 159 158 158 157 156 154 153
85 84 83 82 81 81 80 79 80 80 81 81 81 82 82 82 83 83 82 81 79 78 78 78 76 76 75 74 72 71 70 68 66 64 62 62 62 62 61 61 62 63 65 65 66 67 68 70 72 73 75 77 80 81 84 87 91 95 98 102 105 108 111 115 118 122 125 130 134 138 141 144 147 151 155 158 159 160 160 160 160 159 158 157 155
86 85 84 84 83 82 82 82 82 83 83 83 83 83 83 83 83 83 81 79 78 77 76 75 74 74 73 72 71 70 69 68 67 65 63 62 62 62 61 60 61 61 63 64 65 65 66 68 70 72 73 75 78 80 82 84 87 91 95 98 101 105 108 111 115 118 122 125 130 134 138 141 144 147 151 154 157 159 161 161 161 161 160 159 157
87 86 86 85 85 84 84 84 84 85 85 84 84 83 83 83 83 81 80 78 76 76 75 74 73 72 71 70 70 69 69 68 67 66 64 63 62 62 61 60 60 60 61 62 63 64 65 66 68 70 72 74 76 79 81 82 85 88 91 95 98 101 104 108 111 115 118 122 125 129 134 138 141 144 147 150 154 156 159 161 162 162 162 161 160
88 87 86 86 86 86 86 86 86 87 86 85 84 83 83 82 81 79 78 76 75 75 74 72 71 71 70 69 68 69 68 68 67 66 65 64 62 62 61 60 60 60 60 61 62 62 63 64 66 68 70 72 74 77 79 81 82 85 88 91 95 97 101 104 108 111 114 118 121 125 130 134 138 141 144 147 150 153 156 158 161 163 163 163 162
87 87 87 87 87 88 88 88 89 88 88 86 84 83 82 81 79 78 76 74 74 73 72 71 70 69 68 67 67 67 67 67 66 65 65 64 63 62 62 61 60 60 60 60 61 61 61 62 63 66 68 70 72 74 76 78 80 82 85 88 91 95 98 101 104 108 111 114 118 121 125 129 134 138 141 143 146 149 152 155 158 160 162 163 164
87 87 88 89 90 90 91 91 91 90 88 86 84 82 81 79 78 76 75 73 73 72 71 70 69 68 67 66 66 66 66 66 65 64 64 64 63 62 62 61 60 59 59 59 60 60 61 60 61 63 66 68 70 72 73 76 78 80 82 85 88 92 95 98 101 105 108 111 114 117 121 125 129 134 138 141 143 145 148 151 153 156 159 162 164
89 90 91 91 92 93 92 92 91 89 87 85 82 81 80 78 77 76 74 73 72 71 70 69 68 67 66 65 64 64 65 65 64 63 63 62 63 62 62 61 60 59 59 58 59 59 60 59 60 61 64 66 69 70 71 73 75 78 80 82 85 89 92 95 98 101 105 108 110 113 117 121 125 129 134 137 140 142 144 147 149 152 155 159 162
92 92 92 92 92 91 91 90 89 87 85 83 81 80 79 78 76 74 73 72 71 70 70 69 68 66 65 63 63 62 63 63 63 62 61 61 61 61 61 61 60 59 59 58 58 58 59 59 59 60 62 64 66 67 69 71 73 75 77 80 83 86 89 92 95 98 101 104 107 110 113 117 121 125 129 133 136 139 141 143 145 148 151 154 158
91 91 91 90 89 89 88 87 86 85 83 82 80 79 78 77 75 74 72 71 70 69 69 68 67 66 64 62 61 61 61 62 61 61 60 60 60 60 60 60 60 60 59 58 57 57 57 58 58 58 60 62 64 64 66 69 71 72 74 77 80 83 86 89 92 95 98 100 103 107 110 113 117 121 125 128 131 134 137 140 142 144 147 150 153
91 91 90 89 88 87 86 85 84 83 81 80 79 77 76 75 74 73 71 70 69 68 68 67 67 65 63 62 61 60 60 60 60 60 59 59 59 59 59 59 59 59 59 58 57 57 56 57 57 58 59 61 62 62 63 66 69 70 71 74 77 80 83 86 89 92 94 97 100 103 106 109 112 116 120 124 127 129 132 136 139 141 143 146 149
92 92 91 89 88 86 85 84 83 81 79 78 77 76 75 74 73 72 70 69 68 67 67 66 66 64 63 61 60 60 60 59 59 59 59 58 57 57 57 58 57 58 58 57 56 56 56 56 56 57 58 59 61 61 61 63 66 68 69 72 74 77 80 83 86 89 91 93 96 98 101 105 108 111 115 119 122 125 128 131 134 137 140 143 146
94 93 91 89 87 86 84 82 81 79 77 76 75 74 74 73 71 70 69 68 67 67 66 65 64 63 62 60 60 59 59 59 58 58 58 57 56 56 56 56 56 56 56 56 56 56 56 55 55 56 57 58 59 60 59 61 64 66 68 70 72 75 78 80 83 85 87 89 92 95 97 100 104 108 111 115 118 121 124 127 130 133 136 139 143
94 92 90 88 86 85 83 81 80 78 76 74 73 72 72 71 70 69 68 67 67 66 65 64 63 62 61 60 59 58 58 58 57 57 57 56 55 54 54 54 55 55 55 55 55 55 55 55 55 55 56 57 58 59 59 59 62 64 66 68 70 73 75 77 79 82 84 86 89 92 95 98 101 105 108 111 113 115 118 122 125 128 131 135 139
92 90 88 87 85 83 82 80 79 77 75 73 72 71 71 70 69 68 67 66 66 66 65 64 63 61 60 59 58 57 57 57 56 56 55 55 54 53 53 53 54 55 55 54 54 54 54 55 55 54 55 56 57 59 59 59 60 62 64 65 68 71 73 74 76 78 81 85 88 91 94 96 99 101 104 106 108 110 112 114 118 122 127 131 134
91 88 87 85 83 82 81 79 77 75 73 72 71 70 69 68 67 67 66 66 66 65 64 64 62 61 60 59 58 57 56 55 55 54 54 54 53 52 52 52 53 54 55 55 54 53 53 54 54 54 54 55 56 59 60 59 59 60 62 63 64 67 69 71 74 77 80 83 86 89 91 94 96 98 100 102 104 105 106 109 112 117 121 125 129
89 88 86 84 82 81 79 78 76 74 72 71 70 69 68 67 67 66 66 66 66 65 64 63 62 61 60 59 58 57 55 54 53 53 53 53 52 52 52 52 52 53 54 55 55 54 53 53 54 53 53 54 56 58 60 60 59 59 59 60 61 64 66 69 72 76 78 81 83 86 89 91 93 95 97 99 101 102 103 105 108 111 115 119 123
89 87 85 83 81 80 78 77 75 74 72 71 70 69 67 67 67 66 66 65 65 64 63 62 61 60 59 58 58 57 55 54 53 52 52 52 52 51 51 51 51 52 53 54 55 54 53 53 53 53 53 54 56 58 59 59 59 59 58 58 59 62 65 68 71 74 77 79 81 83 86 88 90 92 94 96 97 99 100 102 104 107 109 112 116
88 86 84 83 81 79 78 77 76 74 73 72 71 69 67 66 66 66 65 64 64 63 62 62 60 59 58 58 57 56 56 54 53 52 52 52 51 51 51 50 50 51 52 53 54 54 53 52 52 53 53 53 55 57 58 58 58 58 57 57 59 61 64 66 69 72 74 76 78 80 82 84 87 89 91 92 94 96 97 99 101 103 104 107 109
87 86 84 82 80 79 78 77 76 75 74 72 71 68 67 66 66 65 64 64 63 62 62 61 60 59 59 58 57 56 56 55 54 52 51 51 51 50 50 49 49 50 51 52 52 53 53 52 52 52 53 53 54 55 56 57 56 57 58 58 60 61 63 64 66 69 72 74 76 78 79 81 83 85 87 88 90 92 94 96 98 99 101 103 105
86 85 83 81 80 79 77 76 75 74 73 72 70 68 66 65 65 65 64 63 63 62 61 61 60 59 59 58 57 57 56 55 54 53 51 51 50 49 49 49 48 48 50 51 51 52 52 52 52 52 52 53 53 54 54 54 55 56 58 59 60 60 61 62 65 67 69 71 73 74 76 77 79 81 82 84 86 88 91 93 95 97 98 100 102
85 84 82 81 80 79 77 76 75 73 72 71 70 68 66 66 65 65 64 63 62 62 61 61 60 59 58 58 57 57 55 55 55 54 52 51 50 49 49 48 47 47 48 50 51 51 51 51 51 51 51 52 53 52 51 52 54 56 58 59 59 59 60 62 64 65 66 68 70 71 72 74 75 77 78 80 83 85 87 89 92 93 95 97 99
84 83 82 81 80 78 77 75 74 73 72 71 70 68 67 66 65 64 64 63 62 61 61 61 60 59 58 57 57 56 55 55 54 54 53 52 50 49 48 47 47 46 47 48 49 50 50 50 50 50 50 51 51 50 49 50 53 55 57 57 58 58 60 62 62 62 63 66 67 68 70 71 73 74 76 78 80 82 83 85 87 89 92 94 96
84 83 82 81 80 78 76 75 73 72 71 71 70 69 68 67 66 64 64 63 62 61 61 60 59 58 57 57 56 56 55 54 54 53 53 52 51 49 48 47 46 46 45 45 47 49 50 50 49 49 49 49 50 49 48 49 51 53 55 56 57 59 61 62 60 59 60 63 66 67 68 69 70 71 73 75 77 78 79 81 83 85 88 91 93
Wind_Direction
291 291 291 291 291 291 291 291 290 290 290 289 289 288 288 287 286 286 285 284 283 282 281 280 279 278 276 275 273 271 270 269 267 266 265 263 262 260 259 258 256 255 253 251 249 248 246 243 239 235 233 232 231 230 229 228 228 229 229 229 229 229 229 230 230 230 231 231 232 233 234 236 237 238 238 238 239 240 241 242 242 243 244 246 247
292 292 292 292 291 291 291 290 289 289 288 288 287 287 286 285 285 284 283 282 282 281 280 279 278 277 276 275 273 271 269 267 266 265 264 263 262 260 259 257 255 254 252 251 249 247 246 244 241 237 234 232 232 230 229 229 228 228 229 229 229 229 229 229 230 230 230 231 232 232 232 234 235 236 237 237 238 239 240 241 241 241 241 242 244
293 292 292 291 291 290 290 289 289 288 288 287 287 286 285 285 284 283 282 281 280 280 279 278 277 276 275 274 273 272 270 267 265 263 261 261 260 260 259 257 255 253 252 250 249 247 245 244 242 239 236 233 232 231 230 229 228 228 228 229 229 229 229 229 229 229 230 230 231 231 232 233 234 235 236 236 236 237 239 240 240 240 239 240 240
292 292 291 291 291 291 291 290 290 290 289 289 288 287 287 286 285 284 283 282 281 281 280 279 278 277 276 275 274 272 271 269 266 263 260 258 258 257 257 256 255 254 252 250 248 247 246 244 242 241 238 235 232 231 231 229 229 228 228 228 229 229 228 228 229 229 230 230 230 231 232 232 233 234 234 234 234 234 236 238 239 240 239 239 239
293 293 293 293 293 293 293 293 293 293 292 292 291 290 289 288 287 287 286 285 284 283 282 281 279 278 277 276 275 273 272 270 268 266 262 259 256 255 254 255 254 253 252 250 248 247 245 244 242 241 239 236 233 232 231 230 229 229 228 228 228 229 229 229 229 229 230 231 231 231 231 232 232 233 233 233 233 233 234 235 237 238 239 239 239
295 296 296 297 297 297 296 296 296 295 295 294 293 292 291 290 289 289 288 287 286 285 283 282 281 279 278 277 276 274 273 271 269 267 265 262 258 254 252 252 252 252 252 251 249 247 245 244 242 241 240 238 235 232 231 231 230 229 229 228 228 228 229 229 229 229 230 230 231 231 231 232 232 232 232 232 233 232 232 233 234 236 237 237 238
297 298 299 299 299 298 298 298 297 296 296 295 294 293 292 292 291 290 289 288 287 286 284 283 281 280 278 277 276 275 273 272 270 269 267 264 261 257 254 251 250 250 250 250 249 247 245 243 242 241 240 238 237 234 232 231 230 230 229 228 228 228 228 229 230 230 230 230 231 232 232 232 232 232 232 232 232 232 232 232 233 234 235 235 236
299 300 300 299 299 299 298 298 297 297 296 295 295 294 293 293 292 292 291 290 288 287 286 284 283 281 280 278 276 275 273 272 271 269 267 265 263 260 256 253 250 249 249 248 248 247 246 244 242 241 240 239 237 235 233 231 230 230 229 229 228 228 228 229 230 230 231 231 231 232 233 233 233 233 233 233 233 233 233 232 232 233 234 235 236
300 300 300 299 299 298 298 298 297 297 296 296 295 294 294 293 293 292 292 291 289 288 287 286 284 283 281 279 278 276 274 272 271 270 268 266 264 261 258 255 252 249 248 247 247 246 246 244 242 241 240 239 238 236 234 232 231 230 230 229 229 229 228 228 229 230 231 231 231 232 233 233 233 233 233 233 233 233 233 233 233 233 233 234 236
301 300 300 299 298 298 298 298 298 297 296 296 295 295 294 294 293 293 292 291 290 289 288 287 286 284 283 281 279 277 275 273 271 270 269 267 265 262 259 256 253 250 248 247 246 246 245 244 243 241 240 239 238 237 235 233 232 231 230 230 229 229 229 228 229 230 231 232 232 232 233 234 234 234 234 234 234 234 233 233 234 234 234 234 235
301 300 299 299 299 299 298 298 297 297 296 296 296 295 295 294 294 293 292 291 290 289 288 287 286 285 283 282 280 277 275 273 271 270 269 268 266 264 261 257 254 251 249 247 246 245 244 244 243 242 240 239 238 237 236 234 233 232 231 230 230 230 229 229 229 229 230 231 232 233 233 234 234 234 234 234 235 235 235 235 234 235 235 235 235
300 299 299 299 299 299 299 298 297 297 296 296 296 295 295 294 294 293 292 291 290 289 288 287 286 285 284 282 280 278 276 273 271 270 268 268 267 265 263 259 255 252 249 248 246 245 244 243 243 242 240 239 238 237 237 235 234 232 231 231 230 230 230 230 229 229 230 231 232 232 233 235 235 235 235 235 235 236 236 236 236 236 235 235 236
300 299 299 299 300 300 300 299 298 298 298 298 297 296 295 295 294 293 293 292 291 290 289 288 287 286 284 283 281 279 277 274 272 270 268 267 267 266 264 261 258 254 250 248 246 245 244 243 242 242 241 239 238 237 236 236 234 233 232 231 231 230 230 230 230 229 229 230 231 232 233 234 236 236 236 236 236 236 237 237 237 237 236 236 236
300 300 301 301 301 301 301 300 300 299 299 299 298 297 297 296 296 295 294 293 292 291 290 289 288 287 285 283 281 280 278 276 274 271 269 267 266 265 264 263 260 256 252 248 246 245 244 243 242 241 241 240 238 237 236 236 235 234 232 232 231 230 230 230 230 230 230 230 231 232 233 234 235 237 237 237 237 237 237 238 238 238 238 237 237
301 302 302 302 302 302 301 301 300 300 300 300 299 298 298 298 297 296 295 295 294 293 292 291 290 288 287 285 283 281 280 278 276 273 270 267 265 264 264 263 261 258 254 250 247 245 244 243 242 241 240 240 239 238 236 236 235 234 233 232 231 231 230 230 230 230 230 230 230 231 232 233 234 236 237 238 238 238 238 238 239 239 238 238 238
302 302 302 303 303 302 302 301 301 301 301 301 300 300 299 298 298 297 297 296 295 294 293 293 292 291 289 287 285 284 282 280 278 275 272 268 265 263 263 263 262 259 256 252 248 246 244 243 242 241 240 240 239 238 237 236 235 235 234 232 231 231 230 230 230 231 231 230 230 231 231 233 234 235 236 238 239 239 238 239 239 239 239 238 238
303 303 304 304 304 303 303 302 302 302 302 301 300 300 300 299 298 297 297 296 296 295 294 294 293 292 291 290 288 287 285 282 280 277 274 270 267 264 262 261 261 260 258 254 250 247 245 243 242 241 241 240 239 238 237 236 235 235 234 233 232 231 230 230 230 230 231 231 231 231 231 232 233 234 235 236 238 239 240 239 239 240 240 239 238
304 304 305 305 305 304 303 303 303 302 302 301 301 300 299 298 298 297 297 296 296 295 295 295 294 293 292 291 290 289 287 285 282 279 275 272 268 265 263 261 260 260 259 255 252 249 246 244 242 242 241 241 240 239 238 237 236 235 234 234 233 232 231 230 230 230 230 231 231 231 231 231 232 234 235 235 237 238 240 240 240 240 241 240 239
305 305 306 306 305 305 304 304 304 303 302 301 301 300 299 298 298 297 297 296 296 295 295 295 294 293 292 292 291 290 288 286 284 281 278 274 271 267 264 262 261 260 259 256 253 250 248 245 243 242 241 241 241 240 239 237 236 236 235 234 234 233 231 230 230 230 230 230 231 231 231 232 232 233 235 235 236 237 239 240 241 241 241 241 241
306 306 307 307 306 305 305 305 304 303 302 302 301 300 299 299 298 297 297 297 296 295 295 295 294 293 292 292 291 290 289 287 285 282 279 276 273 269 266 264 262 260 259 257 254 251 249 247 244 243 242 241 241 241 240 239 237 236 235 235 234 234 232 231 230 230 230 230 231 231 231 232 232 233 234 235 235 236 237 239 241 241 242 242 242
307 307 308 307 306 306 305 305 304 304 303 303 302 301 300 299 298 298 297 297 296 296 296 295 294 293 292 292 291 290 289 287 285 283 280 277 274 271 268 265 263 262 260 258 255 253 250 248 246 244 243 242 241 241 241 240 238 237 236 235 235 234 234 232 231 230 230 230 230 231 231 232 232 233 234 235 235 235 236 238 239 240 241 242 243
308 309 309 308 307 306 306 306 305 304 304 304 303 302 301 300 300 299 299 298 297 297 296 296 294 293 293 292 291 290 288 287 285 283 281 278 274 271 269 267 265 263 261 259 257 254 252 249 247 245 244 242 242 241 241 240 239 238 237 236 235 235 234 234 232 231 231 230 230 230 231 231 232 233 234 235 235 235 236 237 238 239 240 241 243
309 310 309 308 307 307 307 306 306 305 305 305 304 303 303 302 301 301 300 299 299 298 297 296 295 294 293 293 292 290 289 287 285 283 280 278 276 273 270 268 266 265 262 260 258 256 253 251 249 247 245 243 242 241 241 241 240 239 238 237 236 235 235 234 233 232 231 231 231 230 230 231 232 232 234 235 235 236 236 236 237 238 239 240 241
311 310 309 308 308 308 307 306 306 306 306 305 305 304 304 303 302 302 301 300 299 299 298 297 296 295 294 293 292 291 289 287 285 283 280 278 276 274 272 269 267 266 264 262 259 257 255 252 250 248 246 244 243 242 241 241 240 240 239 238 237 236 235 235 234 233 233 232 231 231 231 231 231 232 233 234 235 236 236 236 237 238 238 239 240
311 310 309 309 309 308 307 307 306 306 306 305 305 305 304 303 303 302 301 300 300 299 299 297 296 296 295 294 293 292 290 288 286 283 281 279 277 275 273 271 268 266 265 263 260 258 256 253 251 249 247 245 244 242 241 241 241 240 239 238 238 237 236 235 235 234 234 233 232 231 231 231 231 232 233 233 234 235 236 236 237 237 238 239 240
312 311 310 310 309 308 307 307 307 306 306 306 305 304 304 303 303 302 301 300 300 299 299 297 296 296 295 294 293 292 291 289 286 284 281 279 277 275 273 271 269 267 265 263 261 259 257 254 252 250 248 246 244 243 242 241 241 240 240 239 238 237 237 236 235 235 234 234 233 232 232 231 232 232 232 233 233 234 235 236 237 237 238 238 240
312 311 310 310 310 308 308 308 308 307 307 306 305 305 304 303 302 301 301 300 300 300 298 297 296 296 295 294 293 292 291 289 287 284 282 280 278 275 273 271 269 267 266 264 262 259 257 255 253 251 249 247 245 243 242 241 241 240 240 240 239 238 237 237 236 235 235 235 234 233 233 232 232 232 232 233 233 234 234 235 236 237 237 238 239
312 311 311 311 310 309 309 309 309 308 307 307 306 305 304 304 303 302 301 300 300 300 298 297 296 296 295 294 293 292 291 289 288 286 284 282 279 277 274 272 270 268 266 264 262 260 258 256 254 251 249 248 246 244 242 241 241 240 240 240 239 238 238 237 236 236 235 235 234 234 233 233 233 232 232 232 233 233 234 235 236 237 237 238 238
312 312 312 311 311 311 310 310 310 309 308 308 307 306 305 305 303 302 301 301 300 299 298 297 296 296 295 295 294 293 292 291 289 287 285 283 281 278 276 273 271 269 266 264 262 260 258 256 255 253 250 248 247 245 243 241 241 241 240 240 239 239 238 238 237 236 235 235 235 235 234 234 233 233 233 233 233 233 234 234 235 236 237 238 238
313 313 313 313 312 312 312 311 311 310 309 309 308 307 306 305 304 303 302 301 301 299 298 297 297 297 296 295 295 294 293 292 290 289 287 284 282 280 277 275 272 270 268 265 263 261 258 257 255 253 251 249 248 246 245 243 241 241 240 240 239 239 239 238 237 237 236 235 235 235 235 235 234 234 233 233 233 233 233 234 234 235 237 238 238
314 314 314 313 313 313 312 312 311 311 310 309 308 307 307 305 304 303 302 302 301 300 299 299 298 297 297 296 296 295 294 293 291 290 288 286 284 281 279 277 274 272 269 267 264 262 259 257 255 254 252 250 248 247 245 244 242 241 240 240 240 239 239 239 238 237 237 236 235 235 235 235 235 235 234 234 234 233 233 234 234 235 236 237 238
314 314 314 314 313 313 313 312 312 311 310 309 308 307 306 305 304 303 303 303 302 301 300 299 299 298 297 296 296 295 294 293 291 290 288 286 284 283 281 278 276 273 271 268 266 263 261 258 256 255 253 251 249 247 246 245 243 242 241 240 240 239 239 238 238 238 237 237 236 235 235 235 235 235 235 235 234 234 234 234 234 234 235 236 238
314 314 314 314 314 313 313 313 312 311 310 309 308 307 306 305 304 303 303 303 302 301 300 300 299 297 297 296 295 294 293 292 291 290 288 287 285 283 281 279 277 274 272 270 267 265 262 259 257 255 254 252 250 248 246 245 244 242 241 241 240 240 239 238 238 238 238 237 236 236 235 235 235 236 236 236 235 235 235 234 234 234 235 236 237
315 315 315 315 314 314 313 312 311 310 309 308 308 307 306 305 304 304 304 303 302 301 300 299 298 297 296 296 295 294 293 291 290 289 288 287 285 284 282 280 278 275 273 271 268 266 263 260 257 255 254 252 251 249 247 245 244 243 242 241 240 240 239 239 238 238 238 237 237 236 236 236 235 235 236 236 236 236 236 235 235 234 234 235 236
316 316 316 315 314 313 312 311 310 310 309 308 308 307 306 305 305 304 304 303 302 301 300 299 298 297 296 295 294 293 292 291 289 288 287 286 285 284 282 281 279 276 274 271 269 267 265 262 259 256 254 252 251 250 248 246 244 243 242 241 240 240 239 239 238 238 237 237 237 236 236 236 236 235 235 236 236 236 236 236 236 235 235 235 235
316 315 315 313 313 312 311 310 310 309 309 308 308 307 307 306 305 304 304 303 302 301 300 299 298 297 296 295 294 293 291 290 289 288 287 286 285 283 282 281 279 277 275 272 270 268 266 264 261 258 255 253 251 249 248 247 245 243 242 241 240 239 239 239 239 238 237 237 237 237 236 236 236 236 236 236 236 236 237 237 237 236 236 235 235
314 314 313 313 312 312 311 310 310 309 309 309 308 307 307 305 305 304 304 303 302 301 300 299 298 297 296 295 294 293 291 290 289 288 287 285 284 283 282 280 279 277 276 273 271 269 267 264 262 259 257 254 252 249 248 247 246 244 242 241 240 239 239 239 238 238 238 237 237 237 237 236 236 236 236 236 236 236 236 237 237 237 237 237 236
315 314 314 314 313 313 312 311 310 310 309 309 308 307 306 306 305 304 304 303 302 301 300 299 298 297 297 296 294 293 291 290 289 288 287 285 284 282 281 280 279 277 276 274 272 270 268 265 263 261 258 256 254 250 248 247 247 245 243 241 240 239 239 239 238 238 238 237 237 237 237 237 236 236 236 237 237 237 236 237 237 238 238 238 237
317 316 316 315 314 313 312 311 311 310 310 309 308 308 307 306 305 305 304 304 302 301 300 299 298 297 297 296 295 294 292 291 290 288 287 286 284 282 281 279 278 277 276 274 273 271 268 266 264 262 260 258 255 252 249 247 246 245 244 242 240 239 239 239 239 238 238 238 238 237 237 237 237 237 236 236 237 237 237 237 237 237 237 238 238
318 317 316 315 315 314 313 312 311 310 310 309 309 308 307 306 306 305 305 304 302 301 300 299 298 298 297 296 295 294 293 291 290 289 288 286 285 283 281 280 278 277 276 274 273 271 269 267 265 263 261 259 257 254 250 248 246 245 244 243 241 240 239 239 239 239 239 238 238 238 238 237 237 237 237 236 236 236 236 237 237 237 237 237 238
318 317 316 315 315 314 313 312 311 311 310 310 309 308 307 306 306 306 305 304 302 301 300 299 299 298 297 296 295 294 293 292 291 290 288 287 285 284 282 281 279 278 276 275 273 271 270 268 265 263 262 260 258 256 252 249 247 245 243 242 242 241 240 239 239 239 239 239 239 238 238 237 237 237 237 237 237 236 236 236 237 237 237 237 238
318 317 316 316 315 314 313 313 312 312 311 311 310 309 308 307 307 306 305 304 303 302 301 300 300 299 298 297 296 294 293 292 291 290 288 287 285 284 283 281 280 279 277 275 273 271 269 268 266 264 262 261 259 258 254 251 248 246 244 242 242 242 241 240 239 239 238 239 239 238 238 238 237 237 238 238 238 237 237 236 237 237 237 238 238
318 317 317 316 315 315 314 313 313 312 312 311 310 309 308 308 308 307 306 305 303 303 302 302 301 300 299 298 296 295 293 292 291 290 288 287 286 285 283 281 280 279 277 275 273 271 269 267 266 264 262 261 259 258 257 253 250 248 246 243 242 242 242 241 240 239 238 238 238 238 239 239 238 238 239 239 239 239 238 237 237 237 237 238 238
319 318 317 317 316 315 315 314 313 313 312 312 311 310 310 309 309 308 307 305 304 304 303 303 302 301 300 298 297 296 294 293 291 290 289 287 286 285 283 281 280 278 277 275 273 271 269 267 266 264 262 261 259 258 257 256 253 250 248 245 243 242 242 241 240 239 238 238 238 238 238 239 239 239 239 239 239 239 239 238 238 237 237 237 238
319 319 318 317 317 316 316 315 314 314 313 312 312 311 311 311 310 309 307 306 306 305 304 303 302 301 300 299 297 296 295 293 292 290 289 288 286 285 283 281 280 278 276 275 274 272 270 267 266 264 262 260 259 258 257 257 255 253 250 248 245 243 242 241 240 240 240 239 238 238 238 239 239 239 239 239 240 240 240 239 239 238 238 237 237
320 319 319 318 318 317 316 316 315 314 314 313 313 313 313 312 310 309 308 307 307 306 305 304 303 302 300 299 298 297 295 294 292 291 289 288 286 285 283 281 279 278 276 274 273 272 270 268 266 264 262 260 258 258 257 257 256 255 253 249 247 245 243 241 240 240 240 240 239 239 239 238 239 239 239 240 240 240 240 240 240 239 239 239 238
320 320 319 319 318 318 317 316 316 315 315 314 314 314 314 313 311 310 309 308 307 307 305 304 303 302 301 300 299 297 296 295 293 291 289 288 286 285 283 281 280 278 276 274 273 272 271 269 267 265 263 260 258 257 257 257 256 255 253 251 248 246 244 243 242 241 241 240 240 239 239 239 239 239 239 239 240 240 240 240 241 240 240 240 239
320 320 319 319 318 318 317 317 316 316 315 315 315 315 314 313 311 310 310 309 308 307 306 304 304 303 302 301 299 298 296 295 294 292 290 289 287 286 284 282 280 278 276 275 274 272 271 269 267 265 263 261 259 257 257 257 256 254 253 251 249 247 246 245 243 242 242 241 241 240 240 239 239 239 239 239 239 239 239 240 240 240 240 240 240
321 320 320 319 319 318 318 317 317 316 316 316 315 315 315 313 312 311 310 309 308 307 306 305 304 303 302 301 299 298 297 296 294 293 292 290 288 286 284 282 280 278 277 275 274 273 271 269 268 265 263 261 260 258 256 255 255 254 253 252 251 249 247 245 244 243 243 243 242 241 240 240 239 239 238 238 238 238 238 239 239 240 240 240 241
321 320 320 319 319 318 318 318 317 317 316 316 315 315 314 313 312 311 310 309 308 308 306 305 304 303 302 301 300 298 297 296 295 293 292 291 289 287 285 283 281 279 277 276 275 273 272 270 268 266 264 262 260 258 256 254 253 253 252 252 251 250 248 246 245 244 244 244 243 242 241 240 239 239 238 238 238 238 238 238 239 239 240 240 240
321 320 320 319 319 319 319 318 318 317 317 316 316 315 315 313 312 312 310 309 309 308 306 305 304 303 302 301 300 299 297 296 295 294 293 291 290 288 286 284 282 280 277 275 274 273 272 270 268 266 264 262 260 258 256 253 252 252 252 251 251 249 248 247 246 244 244 244 244 243 242 241 240 239 239 238 238 238 238 238 239 239 239 239 240
Height
10403 10397 10391 10385 10379 10374 10368 10363 10357 10352 10348 10343 10339 10335 10331 10328 10325 10322 10319 10316 10314 10311 10309 10307 10305 10304 10302 10302 10302 10303 10303 10303 10303 10303 10304 10305 10306 10308 10309 10312 10315 10318 10321 10324 10328 10333 10338 10344 10350 10357 10362 10365 10369 10372 10375 10379 10384 10389 10395 10398 10403 10409 10415 10418 10422 10426 10428 10430 10436 10441 10444 10447 10450 10455 10460 10466 10470 10474 10477 10482 10487 10491 10495 10499 10503
10388 10383 10377 10371 10366 10360 10355 10349 10344 10338 10334 10329 10325 10321 10317 10313 10310 10308 10305 10302 10299 10296 10294 10292 10289 10287 10286 10285 10284 10284 10286 10287 10287 10287 10287 10288 10289 10290 10291 10293 10296 10299 10302 10305 10309 10314 10318 10324 10330 10337 10343 10347 10351 10355 10359 10362 10367 10372 10377 10381 10386 10393 10399 10403 10407 10410 10413 10417 10422 10426 10428 10432 10435 10440 10445 10452 10458 10462 10466 10469 10474 10480 10485 10489 10493
10375 10369 10364 10358 10352 10347 10342 10337 10331 10325 10320 10316 10311 10307 10302 10299 10296 10293 10291 10288 10285 10282 10280 10277 10275 10272 10270 10269 10267 10266 10266 10268 10270 10271 10271 10271 10272 10272 10273 10275 10277 10280 10283 10287 10290 10295 10299 10304 10309 10316 10323 10328 10333 10338 10342 10346 10349 10354 10359 10364 10370 10376 10382 10388 10391 10394 10397 10402 10405 10408 10414 10418 10421 10426 10433 10440 10445 10450 10453 10457 10461 10467 10473 10478 10482
10363 10357 10351 10346 10340 10334 10329 10323 10318 10312 10306 10301 10297 10292 10287 10284 10281 10278 10275 10273 10270 10268 10265 10263 10260 10258 10255 10253 10252 10250 10249 10249 10250 10253 10255 10255 10256 10256 10256 10257 10258 10261 10264 10268 10272 10276 10280 10285 10290 10295 10302 10308 10314 10319 10324 10329 10332 10336 10341 10347 10352 10358 10364 10370 10374 10377 10381 10385 10388 10394 10400 10403 10407 10416 10422 10426 10431 10435 10439 10444 10448 10453 10459 10465 10469
10349 10343 10337 10332 10326 10320 10314 10309 10303 10297 10291 10286 10282 10277 10273 10269 10265 10263 10260 10258 10255 10253 10250 10248 10246 10243 10240 10238 10236 10235 10233 10232 10232 10233 10235 10238 10240 10240 10240 10240 10241 10242 10245 10249 10253 10257 10261 10266 10271 10276 10281 10288 10294 10300 10306 10311 10315 10319 10324 10329 10335 10340 10346 10353 10357 10361 10365 10369 10373 10379 10384 10388 10396 10404 10407 10410 10417 10422 10425 10430 10434 10439 10444 10450 10455
10336 10329 10323 10317 10311 10304 10299 10293 10288 10283 10277 10271 10267 10262 10257 10254 10250 10247 10245 10242 10240 10237 10234 10232 10230 10228 10226 10224 10221 10219 10218 10216 10215 10215 10216 10218 10221 10223 10224 10224 10224 10225 10227 10230 10233 10238 10243 10247 10252 10257 10261 10267 10274 10281 10286 10292 10297 10302 10307 10312 10317 10323 10329 10335 10340 10343 10348 10353 10357 10361 10368 10374 10381 10386 10391 10397 10403 10407 10411 10416 10421 10426 10431 10437 10442
10323 10317 10310 10304 10297 10291 10285 10279 10274 10269 10263 10258 10252 10247 10243 10239 10235 10232 10229 10227 10224 10222 10219 10216 10214 10212 10211 10209 10207 10204 10202 10200 10199 10198 10199 10200 10201 10204 10207 10208 10208 10208 10209 10211 10214 10218 10223 10228 10233 10237 10242 10247 10254 10261 10267 10273 10278 10284 10289 10294 10299 10305 10311 10318 10322 10325 10330 10335 10339 10345 10352 10358 10363 10369 10376 10381 10385 10391 10397 10401 10407 10413 10418 10424 10430
10311 10304 10298 10291 10285 10279 10273 10266 10261 10257 10251 10245 10239 10233 10228 10224 10220 10217 10213 10211 10208 10205 10202 10200 10198 10196 10194 10193 10191 10190 10187 10185 10183 10181 10181 10182 10183 10185 10188 10190 10192 10192 10192 10193 10195 10199 10203 10209 10214 10218 10223 10228 10234 10241 10248 10253 10259 10264 10270 10276 10282 10287 10293 10300 10304 10308 10312 10317 10323 10329 10335 10341 10346 10354 10360 10363 10369 10376 10381 10386 10393 10400 10405 10411 10417
10299 10292 10285 10279 10272 10266 10261 10254 10248 10244 10238 10232 10226 10220 10215 10211 10207 10203 10198 10195 10192 10189 10186 10183 10181 10179 10178 10176 10175 10174 10172 10170 10168 10166 10164 10164 10165 10167 10169 10171 10174 10175 10176 10176 10177 10180 10184 10188 10194 10199 10204 10209 10214 10220 10228 10234 10239 10245 10251 10257 10263 10269 10275 10282 10287 10291 10295 10300 10307 10313 10318 10323 10329 10337 10342 10346 10352 10359 10364 10371 10379 10385 10391 10399 10405
10287 10280 10272 10266 10260 10255 10249 10242 10236 10231 10225 10220 10214 10208 10203 10198 10194 10189 10185 10181 10178 10174 10171 10168 10165 10163 10161 10160 10158 10158 10156 10154 10153 10151 10149 10147 10147 10149 10151 10153 10156 10157 10159 10159 10160 10162 10165 10168 10173 10179 10185 10189 10194 10200 10207 10215 10221 10226 10232 10238 10245 10251 10257 10264 10270 10274 10278 10283 10289 10296 10301 10305 10310 10318 10324 10328 10334 10340 10347 10356 10363 10369 10378 10386 10391
10275 10268 10260 10253 10249 10243 10237 10231 10224 10217 10212 10207 10202 10197 10191 10186 10182 10177 10172 10168 10165 10161 10158 10154 10151 10148 10145 10143 10142 10141 10140 10139 10138 10136 10133 10131 10130 10131 10133 10135 10137 10140 10141 10142 10143 10145 10147 10149 10153 10159 10165 10170 10175 10180 10187 10194 10201 10207 10213 10219 10226 10233 10239 10245 10252 10257 10261 10266 10272 10279 10284 10287 10291 10299 10305 10310 10317 10322 10329 10339 10347 10354 10363 10370 10375
10262 10255 10249 10243 10237 10232 10226 10219 10212 10205 10200 10196 10190 10184 10178 10173 10169 10165 10160 10156 10152 10149 10145 10141 10138 10134 10131 10128 10126 10125 10124 10123 10122 10121 10118 10116 10114 10113 10115 10116 10119 10122 10124 10125 10127 10128 10129 10131 10135 10139 10145 10151 10156 10161 10166 10174 10182 10189 10194 10201 10207 10214 10221 10227 10234 10240 10245 10250 10255 10261 10267 10270 10273 10280 10287 10294 10300 10305 10312 10320 10330 10338 10346 10355 10361
10249 10243 10237 10232 10225 10220 10214 10206 10198 10191 10186 10182 10177 10170 10164 10160 10155 10151 10146 10142 10139 10135 10131 10128 10125 10121 10117 10113 10111 10109 10108 10107 10107 10105 10103 10101 10098 10096 10096 10098 10101 10104 10106 10108 10109 10110 10111 10113 10116 10120 10125 10131 10137 10142 10146 10153 10161 10169 10176 10182 10189 10196 10202 10208 10215 10222 10228 10233 10238 10244 10250 10254 10256 10261 10269 10275 10281 10288 10294 10301 10309 10319 10329 10339 10346
10237 10231 10225 10220 10214 10207 10200 10192 10185 10178 10173 10169 10163 10156 10151 10146 10140 10136 10132 10128 10124 10120 10116 10113 10110 10106 10103 10099 10097 10095 10093 10092 10090 10089 10088 10086 10083 10080 10079 10080 10082 10086 10089 10091 10092 10093 10094 10095 10098 10101 10105 10111 10117 10122 10127 10133 10140 10148 10156 10163 10169 10176 10184 10190 10196 10203 10210 10216 10222 10227 10233 10238 10241 10245 10250 10256 10262 10270 10277 10283 10290 10299 10310 10320 10329
10225 10220 10214 10209 10203 10196 10188 10181 10173 10166 10161 10156 10150 10144 10138 10132 10127 10122 10118 10114 10109 10105 10101 10098 10094 10090 10087 10084 10082 10080 10078 10077 10075 10073 10071 10070 10068 10065 10063 10062 10064 10067 10070 10073 10075 10076 10077 10078 10080 10083 10086 10091 10097 10103 10109 10114 10120 10127 10136 10143 10150 10157 10165 10172 10178 10185 10192 10199 10205 10211 10216 10222 10226 10230 10233 10237 10244 10251 10259 10266 10272 10280 10291 10301 10310
10215 10208 10203 10198 10192 10184 10177 10169 10163 10155 10150 10144 10137 10132 10126 10120 10114 10109 10104 10100 10095 10091 10087 10083 10079 10074 10070 10067 10066 10065 10063 10061 10059 10057 10055 10053 10052 10050 10048 10046 10046 10049 10052 10055 10057 10059 10060 10061 10063 10065 10068 10072 10077 10083 10089 10095 10100 10107 10115 10123 10131 10138 10145 10153 10159 10166 10174 10181 10188 10194 10200 10205 10210 10215 10219 10222 10225 10233 10241 10249 10255 10262 10272 10282 10290
10203 10196 10191 10186 10179 10173 10165 10158 10152 10146 10139 10133 10127 10122 10116 10109 10103 10097 10092 10087 10082 10078 10073 10070 10065 10060 10055 10051 10049 10048 10046 10045 10043 10041 10039 10038 10036 10035 10034 10032 10031 10032 10034 10037 10040 10042 10043 10045 10046 10048 10050 10054 10059 10064 10070 10076 10082 10088 10095 10103 10111 10118 10125 10133 10141 10148 10155 10162 10170 10176 10183 10189 10193 10198 10203 10207 10210 10215 10223 10232 10238 10245 10252 10262 10271
10192 10185 10180 10174 10167 10160 10153 10147 10141 10135 10129 10123 10117 10111 10105 10099 10093 10087 10081 10076 10071 10066 10061 10057 10052 10047 10041 10037 10033 10031 10029 10028 10026 10025 10024 10022 10021 10020 10019 10018 10017 10016 10017 10020 10022 10025 10027 10028 10030 10032 10034 10037 10041 10045 10051 10058 10064 10070 10076 10083 10091 10098 10107 10114 10121 10129 10137 10143 10151 10159 10165 10172 10177 10181 10185 10191 10197 10201 10207 10214 10222 10228 10234 10242 10252
10181 10175 10169 10162 10155 10148 10141 10135 10130 10123 10118 10112 10106 10101 10094 10088 10082 10076 10070 10065 10059 10054 10049 10044 10039 10034 10029 10024 10020 10017 10013 10011 10010 10008 10008 10006 10005 10005 10004 10003 10002 10002 10002 10003 10005 10008 10010 10012 10015 10016 10018 10020 10023 10027 10033 10040 10046 10053 10059 10065 10071 10079 10088 10096 10102 10110 10118 10126 10133 10140 10147 10153 10159 10164 10168 10174 10182 10189 10194 10198 10205 10211 10217 10224 10233
10169 10163 10157 10151 10143 10136 10129 10124 10118 10111 10106 10100 10095 10089 10082 10077 10071 10065 10059 10053 10048 10042 10038 10032 10027 10021 10017 10013 10009 10004 10000 9997 9994 9993 9992 9991 9990 9989 9989 9988 9987 9987 9987 9987 9989 9991 9993 9996 9999 10001 10003 10004 10007 10010 10015 10022 10029 10036 10042 10048 10053 10060 10069 10078 10085 10091 10099 10107 10115 10122 10129 10136 10141 10146 10150 10157 10166 10174 10180 10184 10188 10195 10200 10207 10214
10157 10151 10146 10139 10131 10124 10118 10112 10105 10099 10093 10088 10083 10076 10070 10065 10059 10053 10048 10041 10036 10031 10026 10020 10014 10009 10004 10001 9998 9993 9989 9984 9980 9978 9976 9976 9975 9974 9974 9973 9973 9972 9972 9972 9974 9975 9977 9980 9983 9986 9987 9989 9991 9994 9998 10004 10011 10018 10025 10031 10036 10042 10050 10059 10067 10074 10081 10089 10097 10104 10111 10118 10123 10128 10133 10139 10148 10157 10164 10169 10173 10179 10184 10189 10195
10145 10139 10133 10126 10119 10112 10106 10100 10092 10087 10081 10075 10070 10063 10057 10052 10046 10041 10035 10028 10023 10018 10013 10008 10002 9995 9991 9988 9985 9981 9977 9973 9969 9965 9962 9960 9959 9960 9959 9959 9958 9957 9957 9958 9958 9960 9962 9964 9967 9970 9973 9974 9977 9979 9982 9987 9993 10000 10006 10013 10019 10025 10032 10040 10048 10056 10063 10070 10078 10086 10093 10100 10106 10111 10116 10122 10130 10139 10147 10152 10156 10162 10169 10173 10177
10133 10128 10121 10114 10108 10101 10094 10088 10081 10075 10069 10063 10057 10050 10044 10038 10032 10027 10021 10014 10009 10004 9999 9994 9987 9982 9977 9974 9971 9968 9964 9960 9957 9953 9949 9946 9945 9945 9945 9945 9944 9943 9943 9944 9944 9945 9947 9949 9952 9955 9958 9960 9962 9965 9967 9971 9977 9983 9989 9995 10001 10008 10014 10022 10030 10038 10046 10053 10060 10067 10074 10081 10088 10095 10100 10106 10113 10120 10128 10134 10139 10145 10152 10157 10162
10123 10116 10110 10103 10097 10090 10083 10076 10070 10064 10058 10051 10045 10038 10032 10026 10020 10014 10007 10001 9996 9991 9985 9979 9973 9967 9963 9960 9956 9953 9950 9947 9944 9941 9937 9934 9932 9931 9930 9930 9930 9929 9929 9930 9930 9931 9932 9934 9936 9939 9942 9945 9948 9950 9953 9956 9960 9966 9972 9977 9983 9990 9998 10004 10011 10019 10027 10035 10043 10050 10056 10063 10070 10078 10084 10090 10097 10103 10110 10116 10122 10128 10135 10141 10146
10112 10105 10098 10092 10086 10079 10072 10066 10060 10053 10047 10040 10034 10027 10021 10014 10008 10001 9995 9989 9983 9978 9972 9965 9958 9953 9949 9945 9942 9939 9935 9933 9930 9927 9925 9922 9919 9918 9916 9916 9916 9916 9916 9916 9916 9917 9918 9919 9921 9924 9927 9930 9933 9936 9938 9941 9945 9949 9955 9961 9966 9973 9980 9987 9994 10001 10008 10017 10025 10033 10039 10044 10052 10060 10068 10074 10081 10087 10092 10098 10105 10111 10118 10124 10129
10101 10092 10085 10080 10074 10068 10061 10055 10049 10042 10036 10030 10023 10017 10010 10004 9997 9989 9982 9976 9971 9966 9960 9952 9945 9941 9936 9932 9928 9925 9922 9919 9916 9914 9912 9909 9907 9905 9904 9902 9902 9902 9902 9902 9902 9903 9904 9905 9906 9908 9912 9915 9918 9922 9924 9926 9929 9933 9938 9944 9950 9955 9962 9969 9977 9983 9990 9998 10007 10016 10022 10028 10034 10042 10050 10057 10064 10071 10076 10082 10089 10095 10102 10108 10113
10089 10081 10075 10069 10063 10056 10049 10043 10037 10031 10024 10018 10012 10005 9998 9992 9985 9977 9970 9964 9958 9954 9947 9940 9933 9928 9923 9919 9915 9911 9908 9905 9903 9901 9899 9897 9894 9893 9891 9889 9889 9888 9889 9889 9889 9889 9890 9890 9892 9894 9897 9900 9903 9907 9910 9912 9914 9918 9922 9927 9933 9939 9944 9951 9959 9966 9973 9980 9988 9997 10005 10011 10018 10024 10032 10039 10046 10053 10060 10066 10072 10078 10085 10093 10098
10078 10070 10065 10059 10052 10045 10038 10032 10025 10018 10012 10006 9999 9992 9985 9979 9972 9964 9957 9952 9946 9941 9934 9927 9922 9916 9911 9906 9902 9898 9894 9891 9889 9888 9886 9884 9882 9880 9878 9877 9876 9875 9875 9875 9875 9876 9877 9877 9878 9880 9882 9885 9888 9891 9894 9897 9899 9902 9906 9911 9916 9922 9928 9934 9940 9948 9955 9962 9970 9978 9986 9993 10000 10007 10013 10021 10028 10036 10043 10050 10056 10062 10068 10076 10083
10066 10059 10053 10046 10039 10032 10026 10019 10012 10005 9999 9992 9985 9979 9972 9965 9958 9950 9944 9939 9934 9928 9921 9915 9910 9904 9898 9893 9889 9885 9881 9877 9875 9874 9873 9872 9869 9867 9866 9865 9863 9862 9862 9862 9862 9863 9864 9864 9865 9866 9868 9871 9873 9876 9879 9882 9885 9887 9890 9895 9900 9905 9911 9917 9923 9930 9937 9945 9952 9959 9967 9975 9982 9989 9996 10003 10011 10018 10026 10034 10040 10045 10051 10059 10066
10053 10047 10040 10033 10026 10020 10013 10006 9999 9992 9985 9979 9972 9965 9958 9951 9944 9937 9931 9926 9921 9915 9909 9903 9898 9892 9887 9881 9876 9872 9867 9864 9861 9860 9859 9858 9856 9854 9853 9852 9851 9850 9849 9849 9849 9849 9850 9851 9852 9853 9855 9856 9858 9860 9863 9867 9870 9873 9876 9880 9885 9890 9895 9900 9906 9912 9919 9927 9935 9942 9949 9956 9963 9971 9979 9986 9993 10000 10008 10016 10022 10028 10034 10041 10048
10042 10034 10028 10021 10014 10007 10000 9994 9987 9979 9972 9966 9959 9952 9945 9938 9930 9924 9919 9913 9908 9901 9895 9891 9886 9880 9875 9870 9865 9860 9855 9851 9848 9847 9846 9844 9843 9841 9840 9839 9838 9837 9836 9836 9836 9836 9837 9838 9839 9840 9841 9842 9844 9846 9848 9852 9856 9859 9862 9866 9870 9874 9879 9884 9890 9896 9902 9910 9917 9925 9932 9938 9945 9953 9960 9968 9975 9982 9990 9998 10005 10011 10018 10024 10031
10030 10023 10016 10009 10002 9996 9989 9982 9975 9967 9960 9954 9947 9941 9933 9925 9918 9912 9907 9901 9895 9888 9883 9879 9874 9869 9864 9859 9854 9849 9843 9839 9836 9834 9832 9831 9830 9828 9827 9826 9825 9824 9824 9823 9823 9824 9824 9825 9826 9827 9828 9829 9830 9832 9834 9838 9842 9845 9848 9852 9855 9859 9864 9869 9874 9879 9886 9892 9899 9908 9915 9921 9927 9934 9941 9949 9957 9965 9973 9981 9988 9995 10002 10008 10015
10020 10013 10005 9998 9991 9984 9977 9970 9962 9955 9948 9941 9935 9928 9921 9913 9906 9901 9895 9890 9883 9877 9872 9867 9862 9858 9854 9849 9844 9838 9833 9828 9825 9822 9820 9818 9817 9816 9814 9813 9812 9812 9811 9811 9810 9811 9812 9813 9814 9814 9814 9815 9816 9818 9821 9824 9827 9831 9835 9838 9841 9844 9848 9853 9858 9863 9869 9875 9882 9890 9897 9904 9910 9915 9922 9930 9938 9946 9954 9962 9971 9979 9986 9993 10000
10010 10002 9994 9987 9979 9971 9964 9956 9949 9941 9934 9928 9922 9915 9908 9901 9894 9888 9883 9878 9872 9866 9861 9856 9851 9847 9843 9839 9834 9829 9823 9818 9815 9812 9809 9806 9804 9803 9802 9801 9800 9799 9799 9798 9798 9798 9799 9800 9801 9801 9801 9802 9803 9805 9809 9811 9814 9817 9821 9825 9828 9830 9833 9837 9841 9846 9852 9858 9865 9872 9879 9886 9893 9898 9904 9911 9918 9927 9935 9943 9953 9962 9970 9977 9983
9997 9989 9982 9974 9966 9958 9951 9943 9935 9928 9921 9915 9909 9902 9895 9888 9881 9876 9871 9865 9860 9854 9849 9844 9840 9836 9832 9829 9824 9819 9813 9808 9804 9801 9798 9796 9793 9791 9789 9788 9787 9786 9786 9786 9786 9786 9786 9787 9789 9789 9789 9788 9790 9792 9796 9798 9801 9804 9807 9811 9814 9815 9818 9821 9825 9831 9836 9842 9849 9855 9862 9868 9874 9880 9887 9893 9900 9907 9916 9924 9934 9944 9953 9960 9966
9985 9978 9971 9964 9956 9947 9938 9930 9922 9915 9908 9902 9895 9889 9882 9875 9869 9863 9859 9853 9848 9842 9837 9832 9828 9824 9821 9818 9813 9808 9803 9798 9794 9791 9788 9785 9783 9780 9778 9776 9775 9774 9774 9774 9773 9773 9773 9774 9776 9776 9776 9776 9777 9780 9783 9785 9788 9790 9794 9797 9799 9801 9804 9807 9810 9815 9820 9826 9832 9838 9844 9850 9856 9863 9869 9875 9882 9890 9897 9906 9916 9924 9933 9941 9949
9976 9968 9961 9952 9944 9936 9926 9918 9909 9901 9895 9889 9882 9876 9869 9862 9856 9851 9846 9841 9836 9830 9825 9820 9816 9812 9809 9806 9802 9798 9792 9788 9784 9780 9777 9775 9772 9770 9767 9765 9764 9762 9761 9761 9761 9761 9762 9762 9763 9764 9764 9763 9764 9768 9770 9772 9774 9777 9781 9783 9785 9787 9790 9793 9796 9800 9805 9811 9816 9821 9827 9833 9839 9845 9851 9857 9865 9873 9881 9890 9898 9905 9913 9922 9932
9964 9955 9948 9939 9930 9922 9913 9904 9896 9889 9883 9876 9869 9863 9856 9850 9844 9839 9834 9829 9824 9818 9813 9808 9803 9800 9797 9795 9791 9786 9782 9777 9774 9770 9767 9764 9762 9760 9757 9755 9753 9751 9749 9749 9750 9749 9750 9750 9750 9751 9752 9751 9752 9755 9759 9759 9760 9764 9767 9770 9772 9775 9777 9779 9782 9786 9790 9795 9801 9806 9811 9817 9823 9829 9835 9841 9848 9857 9866 9874 9880 9887 9895 9904 9913
9949 9940 9932 9924 9916 9908 9899 9892 9884 9877 9870 9864 9857 9851 9844 9838 9832 9827 9822 9818 9812 9806 9802 9797 9792 9788 9785 9782 9779 9775 9770 9766 9763 9759 9756 9753 9751 9749 9746 9744 9742 9740 9738 9738 9738 9738 9738 9738 9738 9738 9739 9740 9740 9743 9746 9747 9748 9751 9754 9757 9759 9762 9764 9766 9769 9772 9777 9782 9787 9792 9797 9803 9808 9814 9819 9825 9832 9839 9848 9855 9861 9869 9878 9886 9892
9934 9925 9917 9909 9902 9894 9886 9879 9872 9865 9859 9852 9846 9839 9832 9826 9820 9815 9811 9806 9800 9795 9790 9786 9782 9778 9775 9771 9767 9763 9759 9755 9752 9748 9744 9742 9740 9738 9735 9733 9731 9730 9728 9727 9726 9726 9726 9726 9727 9727 9727 9728 9728 9730 9734 9735 9736 9738 9741 9744 9746 9749 9751 9754 9758 9761 9766 9770 9774 9778 9783 9787 9792 9797 9802 9807 9813 9821 9829 9836 9843 9851 9861 9868 9871
9920 9912 9904 9896 9889 9880 9873 9866 9859 9853 9848 9841 9835 9828 9821 9815 9809 9804 9799 9793 9787 9783 9778 9774 9771 9768 9764 9760 9757 9753 9748 9744 9741 9738 9734 9731 9729 9727 9724 9722 9720 9718 9717 9716 9716 9715 9714 9714 9715 9716 9716 9716 9716 9717 9721 9723 9724 9726 9729 9732 9734 9737 9740 9743 9747 9751 9754 9758 9761 9764 9767 9771 9775 9779 9783 9788 9795 9804 9812 9820 9828 9836 9844 9849 9851
9908 9900 9891 9883 9876 9868 9860 9853 9847 9841 9836 9830 9824 9817 9810 9804 9798 9793 9788 9781 9775 9771 9767 9762 9759 9756 9752 9749 9746 9742 9738 9734 9731 9728 9724 9720 9718 9716 9714 9711 9709 9707 9706 9705 9705 9705 9704 9703 9704 9704 9705 9705 9705 9704 9707 9711 9713 9714 9718 9722 9723 9725 9729 9733 9737 9740 9742 9744 9746 9748 9750 9754 9758 9762 9767 9772 9780 9789 9798 9807 9815 9821 9826 9829 9833
9895 9887 9879 9871 9864 9856 9848 9841 9835 9829 9824 9818 9812 9806 9799 9793 9787 9782 9776 9770 9764 9759 9755 9751 9748 9744 9740 9737 9734 9731 9728 9725 9721 9718 9714 9710 9708 9706 9704 9702 9700 9697 9695 9694 9694 9694 9693 9692 9693 9694 9694 9694 9694 9692 9693 9697 9701 9703 9706 9711 9713 9715 9718 9721 9724 9726 9727 9729 9731 9733 9737 9740 9745 9750 9755 9760 9767 9775 9784 9793 9800 9805 9809 9813 9818
9882 9874 9866 9859 9851 9844 9837 9830 9823 9818 9812 9806 9800 9795 9789 9783 9777 9770 9764 9758 9753 9748 9744 9740 9736 9733 9729 9725 9722 9719 9717 9714 9711 9708 9704 9701 9698 9696 9694 9692 9690 9687 9685 9683 9682 9683 9683 9682 9682 9683 9684 9684 9683 9681 9682 9685 9688 9692 9695 9699 9703 9705 9706 9708 9709 9710 9712 9716 9719 9722 9725 9728 9732 9737 9742 9747 9753 9760 9768 9776 9782 9787 9793 9798 9803
9869 9861 9854 9846 9839 9832 9825 9818 9811 9805 9800 9794 9788 9783 9778 9772 9765 9759 9753 9747 9742 9737 9733 9729 9725 9722 9718 9714 9711 9708 9705 9703 9701 9698 9694 9691 9689 9686 9684 9682 9680 9678 9675 9673 9671 9671 9672 9672 9672 9672 9673 9673 9672 9671 9671 9673 9676 9680 9684 9688 9691 9692 9693 9694 9696 9697 9699 9703 9706 9709 9713 9717 9720 9725 9730 9735 9740 9746 9752 9758 9764 9770 9776 9782 9789
9858 9850 9842 9834 9827 9820 9813 9806 9799 9793 9787 9782 9776 9772 9767 9761 9754 9748 9742 9737 9732 9727 9722 9718 9714 9711 9707 9703 9700 9697 9694 9691 9690 9687 9684 9681 9679 9677 9674 9672 9671 9668 9665 9663 9661 9661 9661 9661 9661 9661 9662 9663 9662 9661 9661 9663 9665 9668 9672 9675 9677 9678 9679 9681 9683 9685 9687 9690 9694 9698 9702 9705 9709 9713 9718 9723 9728 9733 9738 9743 9748 9754 9760 9767 9774
9846 9838 9831 9823 9816 9809 9802 9795 9788 9782 9775 9770 9765 9760 9756 9750 9743 9737 9732 9727 9722 9717 9712 9707 9704 9700 9696 9693 9690 9686 9683 9680 9678 9676 9674 9671 9669 9667 9664 9662 9661 9659 9655 9653 9652 9650 9650 9650 9650 9650 9651 9652 9652 9651 9652 9653 9656 9657 9659 9661 9663 9664 9667 9669 9672 9674 9675 9678 9682 9685 9689 9693 9698 9702 9707 9712 9716 9721 9726 9730 9734 9740 9745 9751 9757
9835 9827 9820 9813 9806 9799 9792 9785 9778 9771 9765 9759 9754 9750 9745 9739 9733 9727 9722 9717 9712 9707 9702 9697 9693 9690 9686 9682 9679 9675 9672 9669 9666 9664 9663 9661 9659 9657 9654 9652 9651 9649 9646 9643 9642 9641 9640 9640 9639 9639 9640 9641 9641 9642 9643 9645 9646 9646 9646 9647 9650 9653 9656 9658 9659 9661 9663 9667 9670 9674 9678 9682 9686 9691 9696 9701 9705 9708 9712 9716 9720 9725 9729 9734 9739
9825 9817 9809 9802 9795 9788 9781 9775 9768 9761 9755 9749 9744 9739 9735 9729 9723 9717 9712 9707 9702 9697 9692 9687 9683 9680 9676 9672 9668 9664 9661 9659 9655 9652 9651 9649 9648 9646 9644 9642 9641 9639 9636 9634 9632 9631 9630 9630 9629 9628 9629 9630 9631 9633 9635 9636 9635 9634 9634 9636 9638 9641 9644 9645 9647 9649 9653 9655 9658 9662 9667 9671 9674 9679 9684 9688 9691 9695 9699 9703 9707 9711 9716 9720 9724
9814 9806 9798 9791 9784 9778 9771 9764 9758 9751 9745 9739 9734 9729 9724 9718 9713 9708 9702 9697 9692 9687 9682 9677 9673 9670 9666 9662 9658 9654 9651 9648 9645 9642 9639 9637 9636 9635 9634 9632 9630 9629 9627 9625 9623 9621 9620 9620 9619 9618 9619 9620 9621 9623 9626 9626 9624 9624 9624 9625 9628 9630 9630 9631 9635 9640 9642 9644 9646 9650 9654 9658 9662 9666 9670 9674 9678 9682 9687 9691 9695 9699 9704 9707 9711
9804 9796 9788 9781 9774 9767 9761 9754 9747 9741 9735 9729 9724 9719 9714 9708 9702 9698 9692 9687 9682 9678 9672 9667 9663 9660 9656 9652 9648 9645 9641 9638 9635 9632 9629 9626 9625 9624 9623 9622 9620 9619 9618 9617 9615 9612 9610 9609 9609 9609 9609 9610 9611 9613 9616 9616 9615 9615 9615 9616 9617 9617 9617 9619 9625 9630 9632 9633 9635 9638 9641 9645 9650 9654 9658 9662 9666 9671 9676 9680 9683 9687 9691 9694 9697